Printer-friendly version

IAU Minor Planet Center

Minor Planet Center

MPEC 2007-T85 : 2007 TT24

The following Minor Planet Electronic Circular may be linked-to from your own Web pages, but must not otherwise be redistributed electronically.


Read MPEC 2007-T84 Read MPEC 2007-T86


M.P.E.C. 2007-T85                                Issued 2007 Oct. 12, 15:39 UT

     The Minor Planet Electronic Circulars contain information on unusual
         minor planets and routine data on comets.  They are published
   on behalf of Commission 20 of the International Astronomical Union by the
          Minor Planet Center, Smithsonian Astrophysical Observatory,
                          Cambridge, MA 02138, U.S.A.

             Prepared using the Tamkin Foundation Computer Network

                              MPC@CFA.HARVARD.EDU
          URL http://www.cfa.harvard.edu/iau/mpc.html  ISSN 1523-6714

                                   2007 TT24

Observations:
     K07T24T* C2007 10 11.26600 23 34 59.98 +01 01 47.1          21.7 V ET085G96
     K07T24T  C2007 10 11.27200 23 35 02.18 +01 02 13.2          21.7 V ET085G96
     K07T24T  C2007 10 11.27801 23 35 04.34 +01 02 39.1          21.6 V ET085G96
     K07T24T  C2007 10 11.28399 23 35 06.57 +01 03 05.2          21.9 V ET085G96
     K07T24T  C2007 10 11.29744 23 35 11.49 +01 04 04.1          20.8 V ET085G96
     K07T24T  C2007 10 11.30454 23 35 14.14 +01 04 35.6          21.4 V ET085G96
     K07T24T  C2007 10 11.31162 23 35 16.75 +01 05 06.2                 ET085G96
     K07T24T  C2007 10 12.27992 23 42 28.04 +02 17 01.0          20.8 V ET085G96
     K07T24T  C2007 10 12.28080 23 42 28.36 +02 17 05.1          21.1 V ET085G96
     K07T24T  C2007 10 12.28168 23 42 28.65 +02 17 08.7          21.5 V ET085G96
     K07T24T  C2007 10 12.28256 23 42 29.05 +02 17 13.4          21.1 V ET085G96

Observer details:
G96 Mt. Lemmon Survey.  Observer R. E. Hill.  Measurers E. C. Beshore,
    A. Boattini, G. J. Garradd, A. R. Gibbs, A. D. Grauer, R. E. Hill,
    R. A. Kowalski, S. M. Larson, R. H. McNaught.  1.5-m reflector + CCD.

Orbital elements:
2007 TT24                                                Earth MOID = 0.0403 AU
Epoch 2007 Oct. 27.0 TT = JDT 2454400.5                 MPC
M   3.92145              (2000.0)            P               Q
n   0.57009652     Peri.   19.80495     +0.89997914     -0.43593039
a   1.4404686      Node     6.04020     +0.39801945     +0.82030198
e   0.2803043      Incl.    0.81489     +0.17781467     +0.37022880
P   1.73           H   27.0           G   0.15           U   9
Residuals in seconds of arc
071011 G96  0.0   0.2+    071011 G96  0.2-  0.1-    071012 G96  0.1+  0.0
071011 G96  0.2+  0.1+    071011 G96  0.2+  0.3+    071012 G96  0.7-  0.3-
071011 G96  0.4-  0.2-    071011 G96  0.0   0.0     071012 G96  0.3+  0.4+
071011 G96  0.2+  0.3-    071012 G96  0.3+  0.1-

Ephemeris:
2007 TT24                a,e,i = 1.44, 0.28, 1                   q = 1.0367
Date    TT    R. A. (2000) Decl.     Delta      r     Elong.  Phase     V
2007 10 07    23 07.17   -03 40.6    0.0485   1.043   153.1    25.7    21.7
2007 10 12    23 40.41   +01 57.6    0.0441   1.039   157.8    21.3    21.3
2007 10 17    00 21.26   +08 34.5    0.0418   1.037   164.1    15.3    21.0
2007 10 22    01 07.09   +15 13.8    0.0421   1.037   169.9     9.7    20.8
2007 10 27    01 52.97   +20 46.9    0.0450   1.039   171.4     8.2    20.9
2007 11 01    02 33.86   +24 39.2    0.0503   1.042   169.2    10.3    21.3
2007 11 06    03 07.09   +26 59.4    0.0574   1.048   167.4    11.9    21.6
2007 11 11    03 32.54   +28 14.3    0.0662   1.055   167.0    12.2    22.0
2007 11 16    03 51.48   +28 48.1    0.0763   1.064   167.9    11.3    22.2

Timothy B. Spahr             (C) Copyright 2007 MPC           M.P.E.C. 2007-T85

Read MPEC 2007-T84 Read MPEC 2007-T86


Our Web policy. Index to the CBAT/MPC/ICQ pages.


Valid HTML 4.01!